�������l�o���
Date,Time,MP-1(��Sv/h),MP-2(��Sv/h),MP-3(��Sv/h),MP-4(��Sv/h),MP-5(��Sv/h),MP-6(��Sv/h),MP-7(��Sv/h),MP-8(��Sv/h),����,����(m/s),���J
2021/05/04,00:00,0.616,0.908,0.576,1.113,0.783,0.370,0.643,0.603,�쐼,2.0,��
2021/05/04,00:10,0.615,0.906,0.577,1.116,0.784,0.369,0.643,0.605,�쐼,2.3,��
2021/05/04,00:20,0.615,0.907,0.578,1.114,0.785,0.370,0.642,0.602,�쐼,2.6,��
2021/05/04,00:30,0.615,0.909,0.577,1.116,0.784,0.367,0.641,0.603,���쐼,3.6,��
2021/05/04,00:40,0.616,0.908,0.575,1.114,0.785,0.368,0.642,0.604,���쐼,4.9,��
2021/05/04,00:50,0.615,0.909,0.576,1.114,0.784,0.369,0.642,0.603,��,5.7,��
2021/05/04,01:00,0.616,0.908,0.577,1.114,0.784,0.369,0.643,0.604,��,4.5,��
2021/05/04,01:10,0.616,0.906,0.577,1.111,0.784,0.369,0.644,0.603,��,4.7,��
2021/05/04,01:20,0.617,0.908,0.575,1.116,0.784,0.368,0.642,0.602,��,4.6,��
2021/05/04,01:30,0.616,0.909,0.578,1.116,0.784,0.369,0.642,0.604,��,5.7,��
2021/05/04,01:40,0.616,0.908,0.577,1.117,0.785,0.368,0.644,0.603,��,5.7,��
2021/05/04,01:50,0.616,0.909,0.576,1.114,0.782,0.368,0.642,0.603,��,5.6,��
2021/05/04,02:00,0.615,0.908,0.577,1.116,0.783,0.367,0.643,0.602,��,4.8,��
2021/05/04,02:10,0.616,0.907,0.576,1.113,0.782,0.368,0.644,0.604,��,5.2,��
2021/05/04,02:20,0.616,0.907,0.577,1.115,0.785,0.367,0.645,0.602,��,4.3,��
2021/05/04,02:30,0.615,0.909,0.575,1.112,0.784,0.369,0.642,0.603,���쐼,3.0,��
2021/05/04,02:40,0.615,0.907,0.577,1.114,0.784,0.370,0.644,0.602,���쐼,2.3,��
2021/05/04,02:50,0.616,0.906,0.577,1.113,0.781,0.368,0.644,0.604,���쐼,2.3,��
2021/05/04,03:00,0.615,0.906,0.576,1.113,0.781,0.369,0.642,0.603,��,2.3,��
2021/05/04,03:10,0.616,0.908,0.576,1.113,0.784,0.368,0.642,0.603,���쐼,2.3,��
2021/05/04,03:20,0.615,0.906,0.576,1.113,0.783,0.368,0.644,0.603,��,3.0,��
2021/05/04,03:30,0.613,0.907,0.577,1.115,0.784,0.368,0.644,0.603,���쐼,4.5,��
2021/05/04,03:40,0.615,0.906,0.576,1.114,0.784,0.369,0.644,0.603,���쐼,4.6,��
2021/05/04,03:50,0.615,0.908,0.576,1.115,0.782,0.369,0.643,0.604,���쐼,4.5,��
2021/05/04,04:00,0.615,0.907,0.576,1.114,0.784,0.369,0.642,0.602,���쐼,3.2,��
2021/05/04,04:10,0.614,0.905,0.576,1.114,0.783,0.369,0.641,0.603,��쐼,2.6,��
2021/05/04,04:20,0.615,0.907,0.576,1.114,0.784,0.368,0.642,0.604,�쐼,2.6,��
2021/05/04,04:30,0.616,0.907,0.576,1.114,0.784,0.368,0.641,0.604,���쐼,2.3,��
2021/05/04,04:40,0.615,0.906,0.577,1.114,0.784,0.368,0.643,0.602,�쐼,1.9,��
2021/05/04,04:50,0.615,0.907,0.575,1.114,0.784,0.368,0.644,0.603,��쐼,1.2,��
2021/05/04,05:00,0.616,0.908,0.575,1.115,0.784,0.368,0.643,0.603,��쐼,1.9,��
2021/05/04,05:10,0.616,0.907,0.575,1.115,0.785,0.369,0.643,0.603,��,3.1,��
2021/05/04,05:20,0.617,0.907,0.575,1.116,0.785,0.368,0.641,0.603,��,3.1,��
2021/05/04,05:30,0.615,0.908,0.578,1.115,0.784,0.368,0.642,0.602,��,3.0,��
2021/05/04,05:40,0.617,0.909,0.577,1.113,0.781,0.367,0.643,0.601,��,4.2,��
2021/05/04,05:50,0.615,0.910,0.579,1.115,0.784,0.370,0.643,0.604,��,4.2,��
2021/05/04,06:00,0.617,0.908,0.577,1.115,0.785,0.368,0.644,0.605,��,4.9,��
2021/05/04,06:10,0.616,0.910,0.576,1.118,0.784,0.368,0.643,0.602,��쐼,4.6,��
2021/05/04,06:20,0.616,0.910,0.576,1.117,0.785,0.369,0.643,0.605,��쐼,5.3,��
2021/05/04,06:30,0.617,0.909,0.578,1.115,0.783,0.368,0.645,0.605,��쐼,4.3,��
2021/05/04,06:40,0.618,0.911,0.579,1.118,0.786,0.371,0.645,0.604,��쐼,3.9,��
2021/05/04,06:50,0.618,0.909,0.576,1.114,0.785,0.370,0.644,0.603,��쐼,3.8,��
2021/05/04,07:00,0.615,0.910,0.577,1.114,0.787,0.368,0.643,0.603,��쐼,3.7,��
2021/05/04,07:10,0.616,0.908,0.577,1.115,0.786,0.368,0.646,0.604,��쐼,3.4,��
2021/05/04,07:20,0.617,0.908,0.579,1.116,0.786,0.368,0.644,0.604,�쐼,4.2,��
2021/05/04,07:30,0.617,0.908,0.577,1.116,0.785,0.365,0.646,0.604,�쐼,4.8,��
2021/05/04,07:40,0.615,0.910,0.577,1.116,0.785,0.366,0.644,0.604,���쐼,6.2,��
2021/05/04,07:50,0.618,0.909,0.577,1.116,0.785,0.367,0.643,0.605,�쐼,4.5,��
2021/05/04,08:00,0.616,0.908,0.578,1.117,0.784,0.366,0.643,0.604,�쐼,3.9,��
2021/05/04,08:10,0.619,0.911,0.577,1.118,0.784,0.366,0.643,0.603,���쐼,4.2,��
2021/05/04,08:20,0.618,0.910,0.577,1.117,0.787,0.369,0.645,0.603,��,4.7,��
2021/05/04,08:30,0.617,0.913,0.577,1.118,0.788,0.369,0.645,0.602,���쐼,5.1,��
2021/05/04,08:40,0.615,0.910,0.579,1.116,0.784,0.368,0.644,0.603,���쐼,5.6,��
2021/05/04,08:50,0.617,0.911,0.579,1.118,0.786,0.369,0.643,0.602,���쐼,5.1,��
2021/05/04,09:00,0.617,0.912,0.580,1.117,0.787,0.369,0.644,0.602,���쐼,2.6,��
2021/05/04,09:10,0.615,0.915,0.577,1.118,0.786,0.368,0.644,0.602,�쐼,4.5,��
2021/05/04,09:20,0.617,0.913,0.578,1.120,0.785,0.367,0.644,0.603,�쐼,6.9,��
2021/05/04,09:30,0.616,0.913,0.578,1.119,0.787,0.368,0.645,0.603,���쐼,7.4,��
2021/05/04,09:40,0.618,0.913,0.577,1.119,0.786,0.369,0.644,0.603,��,5.4,��
2021/05/04,09:50,0.619,0.914,0.577,1.119,0.785,0.369,0.645,0.603,���쐼,7.9,��
2021/05/04,10:00,0.619,0.914,0.578,1.120,0.787,0.369,0.645,0.604,��,7.7,��
2021/05/04,10:10,0.619,0.914,0.578,1.120,0.786,0.370,0.645,0.603,��,7.0,��
2021/05/04,10:20,0.619,0.916,0.578,1.119,0.786,0.370,0.645,0.603,��,6.6,��
2021/05/04,10:30,0.620,0.917,0.575,1.121,0.788,0.369,0.643,0.604,���쐼,6.8,��
2021/05/04,10:40,0.619,0.915,0.578,1.121,0.791,0.369,0.643,0.602,���쐼,7.1,��
2021/05/04,10:50,0.619,0.915,0.579,1.121,0.787,0.370,0.644,0.603,��,6.2,��
2021/05/04,11:00,0.619,0.914,0.579,1.119,0.791,0.371,0.645,0.602,���쐼,8.5,��
2021/05/04,11:10,0.621,0.915,0.578,1.123,0.790,0.370,0.646,0.603,��,8.0,��
2021/05/04,11:20,0.620,0.917,0.579,1.120,0.791,0.370,0.647,0.604,��,9.1,��
2021/05/04,11:30,0.621,0.916,0.581,1.120,0.790,0.370,0.645,0.604,��,7.5,��
2021/05/04,11:40,0.622,0.915,0.580,1.121,0.792,0.370,0.646,0.605,��,5.0,��
2021/05/04,11:50,0.622,0.918,0.579,1.120,0.790,0.371,0.647,0.605,��,7.2,��
2021/05/04,12:00,0.624,0.917,0.580,1.119,0.791,0.372,0.645,0.605,���쐼,4.7,��
2021/05/04,12:10,0.624,0.917,0.581,1.122,0.792,0.371,0.647,0.604,���쐼,4.8,��
2021/05/04,12:20,0.622,0.917,0.581,1.120,0.792,0.371,0.647,0.604,�쐼,5.8,��
2021/05/04,12:30,0.625,0.917,0.579,1.121,0.793,0.372,0.647,0.604,���쐼,5.4,��
2021/05/04,12:40,0.623,0.917,0.579,1.119,0.794,0.372,0.646,0.606,�쐼,5.2,��
2021/05/04,12:50,0.623,0.916,0.581,1.123,0.793,0.372,0.646,0.605,���쐼,3.2,��
2021/05/04,13:00,0.623,0.917,0.581,1.125,0.793,0.373,0.646,0.604,��쐼,2.8,��
2021/05/04,13:10,0.620,0.917,0.579,1.123,0.793,0.372,0.646,0.605,��쓌,6.0,��
2021/05/04,13:20,0.619,0.921,0.580,1.123,0.793,0.372,0.646,0.604,��쓌,6.2,��
2021/05/04,13:30,0.622,0.921,0.581,1.122,0.794,0.372,0.647,0.606,��쓌,7.1,��
2021/05/04,13:40,0.623,0.920,0.580,1.127,0.793,0.370,0.646,0.604,��쓌,6.3,��
2021/05/04,13:50,0.622,0.920,0.581,1.124,0.794,0.371,0.646,0.602,��쓌,6.8,��
2021/05/04,14:00,0.623,0.919,0.581,1.125,0.794,0.371,0.645,0.605,��쓌,6.6,��
2021/05/04,14:10,0.623,0.919,0.581,1.125,0.796,0.370,0.646,0.603,��쓌,6.1,��
2021/05/04,14:20,0.623,0.919,0.582,1.122,0.795,0.371,0.647,0.605,��쓌,5.1,��
2021/05/04,14:30,0.622,0.920,0.581,1.122,0.794,0.372,0.647,0.604,��쓌,7.2,��
2021/05/04,14:40,0.625,0.921,0.581,1.123,0.794,0.372,0.647,0.605,��쓌,6.4,��
2021/05/04,14:50,0.621,0.920,0.582,1.122,0.796,0.370,0.645,0.604,��쓌,9.1,��
2021/05/04,15:00,0.622,0.919,0.581,1.125,0.795,0.371,0.645,0.604,��,6.8,��
2021/05/04,15:10,0.623,0.919,0.581,1.125,0.796,0.372,0.645,0.604,��,4.8,��
2021/05/04,15:20,0.621,0.924,0.581,1.124,0.796,0.372,0.646,0.604,��쓌,5.1,��
2021/05/04,15:30,0.623,0.922,0.582,1.123,0.796,0.371,0.647,0.604,��쓌,6.0,��
2021/05/04,15:40,0.621,0.919,0.581,1.125,0.796,0.371,0.646,0.604,��,4.4,��
2021/05/04,15:50,0.621,0.921,0.581,1.126,0.795,0.371,0.646,0.603,��,4.0,��
2021/05/04,16:00,0.621,0.923,0.581,1.122,0.794,0.372,0.646,0.605,��쓌,2.6,��
2021/05/04,16:10,0.623,0.921,0.582,1.124,0.798,0.371,0.647,0.604,��쓌,8.2,�L
2021/05/04,16:20,0.624,0.921,0.581,1.125,0.796,0.371,0.647,0.604,��쓌,6.8,��
2021/05/04,16:30,0.623,0.922,0.581,1.124,0.796,0.372,0.646,0.604,��,7.4,��
2021/05/04,16:40,0.624,0.921,0.581,1.124,0.795,0.370,0.646,0.605,��,6.6,��
2021/05/04,16:50,0.623,0.921,0.580,1.123,0.797,0.371,0.646,0.604,��,6.3,��
2021/05/04,17:00,0.623,0.922,0.581,1.126,0.797,0.371,0.647,0.605,��,8.3,��
2021/05/04,17:10,0.621,0.923,0.580,1.125,0.795,0.369,0.646,0.605,��,7.6,��
2021/05/04,17:20,0.622,0.924,0.580,1.127,0.794,0.371,0.646,0.606,��,8.6,��
2021/05/04,17:30,0.621,0.924,0.579,1.128,0.793,0.371,0.646,0.603,��,8.1,��
2021/05/04,17:40,0.622,0.924,0.580,1.128,0.795,0.371,0.646,0.605,��,6.8,��
2021/05/04,17:50,0.622,0.927,0.579,1.126,0.796,0.369,0.646,0.605,��쐼,6.6,��
2021/05/04,18:00,0.622,0.923,0.581,1.129,0.796,0.371,0.645,0.608,��,6.5,��
2021/05/04,18:10,0.624,0.925,0.582,1.127,0.796,0.370,0.646,0.608,��,6.5,��
2021/05/04,18:20,0.623,0.926,0.581,1.129,0.796,0.372,0.647,0.608,��,7.9,��
2021/05/04,18:30,0.622,0.926,0.583,1.129,0.797,0.372,0.647,0.608,��,8.2,��
2021/05/04,18:40,0.622,0.925,0.584,1.130,0.795,0.371,0.647,0.605,��,7.0,��
2021/05/04,18:50,0.626,0.926,0.584,1.128,0.797,0.371,0.648,0.606,��,6.3,��
2021/05/04,19:00,0.624,0.926,0.582,1.129,0.799,0.372,0.647,0.607,��쐼,6.3,��
2021/05/04,19:10,0.624,0.928,0.585,1.129,0.797,0.372,0.647,0.608,��쐼,5.7,��
2021/05/04,19:20,0.625,0.925,0.583,1.128,0.798,0.372,0.648,0.607,��쐼,4.8,��
2021/05/04,19:30,0.624,0.926,0.584,1.129,0.798,0.371,0.648,0.607,��쐼,5.9,��
2021/05/04,19:40,0.625,0.926,0.583,1.130,0.798,0.372,0.648,0.608,��쐼,5.5,��
2021/05/04,19:50,0.625,0.925,0.582,1.129,0.801,0.371,0.646,0.607,��쐼,5.7,��
2021/05/04,20:00,0.623,0.925,0.581,1.130,0.797,0.371,0.648,0.607,��쐼,5.5,��
2021/05/04,20:10,0.623,0.925,0.582,1.132,0.798,0.370,0.647,0.606,��쐼,5.1,��
2021/05/04,20:20,0.624,0.926,0.582,1.130,0.797,0.372,0.648,0.606,��쐼,4.1,��
2021/05/04,20:30,0.625,0.926,0.584,1.129,0.797,0.371,0.648,0.606,��쐼,3.3,��
2021/05/04,20:40,0.625,0.926,0.583,1.131,0.799,0.370,0.647,0.606,��,3.9,��
2021/05/04,20:50,0.626,0.926,0.582,1.129,0.798,0.373,0.648,0.607,��쐼,3.1,��
2021/05/04,21:00,0.624,0.925,0.583,1.129,0.799,0.373,0.649,0.607,��쐼,2.6,��
2021/05/04,21:10,0.626,0.925,0.583,1.128,0.800,0.372,0.648,0.608,�쐼,2.0,��
2021/05/04,21:20,0.626,0.926,0.582,1.129,0.797,0.372,0.647,0.608,���쐼,1.5,��
2021/05/04,21:30,0.623,0.925,0.584,1.130,0.798,0.372,0.645,0.608,���쐼,1.7,��
2021/05/04,21:40,0.623,0.923,0.581,1.129,0.798,0.372,0.646,0.605,�쐼,1.4,��
2021/05/04,21:50,0.624,0.922,0.582,1.128,0.798,0.371,0.647,0.605,�쐼,3.3,��
2021/05/04,22:00,0.624,0.924,0.583,1.129,0.796,0.372,0.647,0.607,�쐼,3.8,��
2021/05/04,22:10,0.624,0.925,0.583,1.129,0.799,0.371,0.647,0.606,�쐼,3.4,��
2021/05/04,22:20,0.625,0.924,0.584,1.128,0.799,0.371,0.646,0.606,���쐼,3.5,��
2021/05/04,22:30,0.623,0.924,0.584,1.129,0.796,0.372,0.646,0.605,�쐼,3.4,��
2021/05/04,22:40,0.622,0.923,0.583,1.129,0.796,0.373,0.646,0.608,��쐼,2.8,��
2021/05/04,22:50,0.622,0.922,0.583,1.128,0.798,0.373,0.647,0.606,��쐼,2.6,��
2021/05/04,23:00,0.625,0.924,0.582,1.129,0.797,0.371,0.646,0.606,�쐼,2.5,��
2021/05/04,23:10,0.623,0.925,0.582,1.129,0.797,0.373,0.647,0.605,��쐼,2.0,��
2021/05/04,23:20,0.622,0.924,0.582,1.130,0.799,0.371,0.647,0.607,��,2.5,��
2021/05/04,23:30,0.624,0.923,0.584,1.129,0.796,0.372,0.647,0.607,��,3.2,��
2021/05/04,23:40,0.624,0.922,0.583,1.130,0.797,0.371,0.647,0.606,��,3.9,��
2021/05/04,23:50,0.623,0.925,0.581,1.131,0.798,0.370,0.646,0.606,��,2.5,��
